User: anonymous   Login
Location: Peebles
(55.6412°N, 3.1714°W)
Time: 15:50:43
(UTC+01:00)
Language:

OV1 4 Rocket - Orbit

View from above orbital plane
View from above orbital plane
View from above satellite
View from above satellite

Ground track
Ground track

The orbit data is extracted from the following two-line orbital elements,

1 02124U 66025D   22183.72108400  .00000344  00000-0  63435-4 0  9992
2 02124 144.5134 347.2105 0081313 223.1822 136.2450 13.87429544850721
Epoch (UTC): 02 July 2022 17:18:21
Eccentricity: 0.0081313
inclination: 144.5134°
perigee height: 878 km
apogee height: 997 km
right ascension of ascending node: 347.2105°
argument of perigee: 223.1822°
revolutions per day: 13.87429544
mean anomaly at epoch: 136.2450°
orbit number at epoch: 85072

The dashed part of the orbit path shows where the satellite is in the earth's shadow,  

DLR